Year,Month,Day,Hour,Minute,Value (Times are PST for insolation in W/m^2)
2017,08,15,00,00,0.00
2017,08,15,00,01,0.00
2017,08,15,00,02,0.00
2017,08,15,00,03,0.00
2017,08,15,00,04,0.00
2017,08,15,00,05,0.00
2017,08,15,00,06,0.00
2017,08,15,00,07,0.00
2017,08,15,00,08,0.00
2017,08,15,00,09,0.00
2017,08,15,00,10,0.00
2017,08,15,00,11,0.00
2017,08,15,00,12,0.00
2017,08,15,00,13,0.00
2017,08,15,00,14,0.00
2017,08,15,00,15,0.00
2017,08,15,00,16,0.00
2017,08,15,00,17,0.00
2017,08,15,00,18,0.00
2017,08,15,00,19,0.00
2017,08,15,00,20,0.00
2017,08,15,00,21,0.00
2017,08,15,00,22,0.00
2017,08,15,00,23,0.00
2017,08,15,00,24,0.00
2017,08,15,00,25,0.00
2017,08,15,00,26,0.00
2017,08,15,00,27,0.00
2017,08,15,00,28,0.00
2017,08,15,00,29,0.00
2017,08,15,00,30,0.00
2017,08,15,00,31,0.00
2017,08,15,00,32,0.00
2017,08,15,00,33,0.00
2017,08,15,00,34,0.00
2017,08,15,00,35,0.00
2017,08,15,00,36,0.00
2017,08,15,00,37,0.00
2017,08,15,00,38,0.00
2017,08,15,00,39,0.00
2017,08,15,00,40,0.00
2017,08,15,00,41,0.00
2017,08,15,00,42,0.00
2017,08,15,00,43,0.00
2017,08,15,00,44,0.00
2017,08,15,00,45,0.00
2017,08,15,00,46,0.00
2017,08,15,00,47,0.00
2017,08,15,00,48,0.00
2017,08,15,00,49,0.00
2017,08,15,00,50,0.00
2017,08,15,00,51,0.00
2017,08,15,00,52,0.00
2017,08,15,00,53,0.00
2017,08,15,00,54,0.00
2017,08,15,00,55,0.00
2017,08,15,00,56,0.00
2017,08,15,00,57,0.00
2017,08,15,00,58,0.00
2017,08,15,00,59,0.00
2017,08,15,01,00,0.00
2017,08,15,01,01,0.00
2017,08,15,01,02,0.00
2017,08,15,01,03,0.00
2017,08,15,01,04,0.00
2017,08,15,01,05,0.00
2017,08,15,01,06,0.00
2017,08,15,01,07,0.00
2017,08,15,01,08,0.00
2017,08,15,01,09,0.00
2017,08,15,01,10,0.00
2017,08,15,01,11,0.00
2017,08,15,01,12,0.00
2017,08,15,01,13,0.00
2017,08,15,01,14,0.00
2017,08,15,01,15,0.00
2017,08,15,01,16,0.00
2017,08,15,01,17,0.00
2017,08,15,01,18,0.00
2017,08,15,01,19,0.00
2017,08,15,01,20,0.00
2017,08,15,01,21,0.00
2017,08,15,01,22,0.00
2017,08,15,01,23,0.00
2017,08,15,01,24,0.00
2017,08,15,01,25,0.00
2017,08,15,01,26,0.00
2017,08,15,01,27,0.00
2017,08,15,01,28,0.00
2017,08,15,01,29,0.00
2017,08,15,01,30,0.00
2017,08,15,01,31,0.00
2017,08,15,01,32,0.00
2017,08,15,01,33,0.00
2017,08,15,01,34,0.00
2017,08,15,01,35,0.00
2017,08,15,01,36,0.00
2017,08,15,01,37,0.00
2017,08,15,01,38,0.00
2017,08,15,01,39,0.00
2017,08,15,01,40,0.00
2017,08,15,01,41,0.00
2017,08,15,01,42,0.00
2017,08,15,01,43,0.00
2017,08,15,01,44,0.00
2017,08,15,01,45,0.00
2017,08,15,01,46,0.00
2017,08,15,01,47,0.00
2017,08,15,01,48,0.00
2017,08,15,01,49,0.00
2017,08,15,01,50,0.00
2017,08,15,01,51,0.00
2017,08,15,01,52,0.00
2017,08,15,01,53,0.00
2017,08,15,01,54,0.00
2017,08,15,01,55,0.00
2017,08,15,01,56,0.00
2017,08,15,01,57,0.00
2017,08,15,01,58,0.00
2017,08,15,01,59,0.00
2017,08,15,02,00,0.00
2017,08,15,02,01,0.00
2017,08,15,02,02,0.00
2017,08,15,02,03,0.00
2017,08,15,02,04,0.00
2017,08,15,02,05,0.00
2017,08,15,02,06,0.00
2017,08,15,02,07,0.00
2017,08,15,02,08,0.00
2017,08,15,02,09,0.00
2017,08,15,02,10,0.00
2017,08,15,02,11,0.00
2017,08,15,02,12,0.00
2017,08,15,02,13,0.00
2017,08,15,02,14,0.00
2017,08,15,02,15,0.00
2017,08,15,02,16,0.00
2017,08,15,02,17,0.00
2017,08,15,02,18,0.00
2017,08,15,02,19,0.00
2017,08,15,02,20,0.00
2017,08,15,02,21,0.00
2017,08,15,02,22,0.00
2017,08,15,02,23,0.00
2017,08,15,02,24,0.00
2017,08,15,02,25,0.00
2017,08,15,02,26,0.00
2017,08,15,02,27,0.00
2017,08,15,02,28,0.00
2017,08,15,02,29,0.00
2017,08,15,02,30,0.00
2017,08,15,02,31,0.00
2017,08,15,02,32,0.00
2017,08,15,02,33,0.00
2017,08,15,02,34,0.00
2017,08,15,02,35,0.00
2017,08,15,02,36,0.00
2017,08,15,02,37,0.00
2017,08,15,02,38,0.00
2017,08,15,02,39,0.00
2017,08,15,02,40,0.00
2017,08,15,02,41,0.00
2017,08,15,02,42,0.00
2017,08,15,02,43,0.00
2017,08,15,02,44,0.00
2017,08,15,02,45,0.00
2017,08,15,02,46,0.00
2017,08,15,02,47,0.00
2017,08,15,02,48,0.00
2017,08,15,02,49,0.00
2017,08,15,02,50,0.00
2017,08,15,02,51,0.00
2017,08,15,02,52,0.00
2017,08,15,02,53,0.00
2017,08,15,02,54,0.00
2017,08,15,02,55,0.00
2017,08,15,02,56,0.00
2017,08,15,02,57,0.00
2017,08,15,02,58,0.00
2017,08,15,02,59,0.00
2017,08,15,03,00,0.00
2017,08,15,03,01,0.00
2017,08,15,03,02,0.00
2017,08,15,03,03,0.00
2017,08,15,03,04,0.00
2017,08,15,03,05,0.00
2017,08,15,03,06,0.00
2017,08,15,03,07,0.00
2017,08,15,03,08,0.00
2017,08,15,03,09,0.00
2017,08,15,03,10,0.00
2017,08,15,03,11,0.00
2017,08,15,03,12,0.00
2017,08,15,03,13,0.00
2017,08,15,03,14,0.00
2017,08,15,03,15,0.00
2017,08,15,03,16,0.00
2017,08,15,03,17,0.00
2017,08,15,03,18,0.00
2017,08,15,03,19,0.00
2017,08,15,03,20,0.00
2017,08,15,03,21,0.00
2017,08,15,03,22,0.00
2017,08,15,03,23,0.00
2017,08,15,03,24,0.00
2017,08,15,03,25,0.00
2017,08,15,03,26,0.00
2017,08,15,03,27,0.00
2017,08,15,03,28,0.00
2017,08,15,03,29,0.00
2017,08,15,03,30,0.00
2017,08,15,03,31,0.00
2017,08,15,03,32,0.00
2017,08,15,03,33,0.00
2017,08,15,03,34,0.00
2017,08,15,03,35,0.00
2017,08,15,03,36,0.00
2017,08,15,03,37,0.00
2017,08,15,03,38,0.00
2017,08,15,03,39,0.00
2017,08,15,03,40,0.00
2017,08,15,03,41,0.00
2017,08,15,03,42,0.00
2017,08,15,03,43,0.00
2017,08,15,03,44,0.00
2017,08,15,03,45,0.00
2017,08,15,03,46,0.00
2017,08,15,03,47,0.00
2017,08,15,03,48,0.00
2017,08,15,03,49,0.00
2017,08,15,03,50,0.00
2017,08,15,03,51,0.00
2017,08,15,03,52,0.00
2017,08,15,03,53,0.00
2017,08,15,03,54,0.00
2017,08,15,03,55,0.00
2017,08,15,03,56,0.00
2017,08,15,03,57,0.00
2017,08,15,03,58,0.00
2017,08,15,03,59,0.00
2017,08,15,04,00,0.00
2017,08,15,04,01,0.00
2017,08,15,04,02,0.00
2017,08,15,04,03,0.00
2017,08,15,04,04,0.00
2017,08,15,04,05,0.00
2017,08,15,04,06,0.00
2017,08,15,04,07,0.00
2017,08,15,04,08,0.00
2017,08,15,04,09,0.00
2017,08,15,04,10,0.00
2017,08,15,04,11,0.00
2017,08,15,04,12,0.00
2017,08,15,04,13,0.00
2017,08,15,04,14,0.00
2017,08,15,04,15,0.00
2017,08,15,04,16,0.00
2017,08,15,04,17,0.00
2017,08,15,04,18,0.00
2017,08,15,04,19,0.00
2017,08,15,04,20,0.00
2017,08,15,04,21,0.00
2017,08,15,04,22,0.00
2017,08,15,04,23,0.00
2017,08,15,04,24,0.00
2017,08,15,04,25,0.00
2017,08,15,04,26,0.00
2017,08,15,04,27,0.00
2017,08,15,04,28,0.00
2017,08,15,04,29,0.00
2017,08,15,04,30,0.00
2017,08,15,04,31,0.00
2017,08,15,04,32,0.00
2017,08,15,04,33,0.00
2017,08,15,04,34,0.00
2017,08,15,04,35,0.00
2017,08,15,04,36,0.00
2017,08,15,04,37,0.00
2017,08,15,04,38,0.00
2017,08,15,04,39,0.00
2017,08,15,04,40,0.00
2017,08,15,04,41,0.00
2017,08,15,04,42,0.00
2017,08,15,04,43,0.00
2017,08,15,04,44,0.00
2017,08,15,04,45,0.00
2017,08,15,04,46,0.00
2017,08,15,04,47,0.00
2017,08,15,04,48,0.00
2017,08,15,04,49,0.00
2017,08,15,04,50,0.00
2017,08,15,04,51,0.00
2017,08,15,04,52,0.00
2017,08,15,04,53,0.00
2017,08,15,04,54,0.00
2017,08,15,04,55,0.00
2017,08,15,04,56,0.00
2017,08,15,04,57,0.00
2017,08,15,04,58,0.00
2017,08,15,04,59,0.00
2017,08,15,05,00,0.00
2017,08,15,05,01,0.00
2017,08,15,05,02,0.00
2017,08,15,05,03,0.00
2017,08,15,05,04,0.00
2017,08,15,05,05,0.00
2017,08,15,05,06,0.00
2017,08,15,05,07,0.00
2017,08,15,05,08,0.00
2017,08,15,05,09,0.00
2017,08,15,05,10,0.00
2017,08,15,05,11,0.00
2017,08,15,05,12,0.00
2017,08,15,05,13,0.00
2017,08,15,05,14,0.00
2017,08,15,05,15,0.00
2017,08,15,05,16,0.00
2017,08,15,05,17,0.00
2017,08,15,05,18,0.00
2017,08,15,05,19,0.00
2017,08,15,05,20,0.00
2017,08,15,05,21,0.00
2017,08,15,05,22,0.00
2017,08,15,05,23,0.00
2017,08,15,05,24,0.00
2017,08,15,05,25,0.00
2017,08,15,05,26,0.00
2017,08,15,05,27,0.00
2017,08,15,05,28,0.00
2017,08,15,05,29,0.00
2017,08,15,05,30,0.00
2017,08,15,05,31,0.00
2017,08,15,05,32,0.00
2017,08,15,05,33,0.00
2017,08,15,05,34,0.00
2017,08,15,05,35,0.00
2017,08,15,05,36,0.00
2017,08,15,05,37,0.00
2017,08,15,05,38,0.00
2017,08,15,05,39,0.00
2017,08,15,05,40,0.00
2017,08,15,05,41,0.00
2017,08,15,05,42,0.00
2017,08,15,05,43,0.00
2017,08,15,05,44,0.00
2017,08,15,05,45,0.00
2017,08,15,05,46,0.00
2017,08,15,05,47,0.00
2017,08,15,05,48,0.00
2017,08,15,05,49,0.00
2017,08,15,05,50,0.00
2017,08,15,05,51,0.00
2017,08,15,05,52,0.00
2017,08,15,05,53,0.00
2017,08,15,05,54,0.00
2017,08,15,05,55,0.00
2017,08,15,05,56,0.00
2017,08,15,05,57,0.00
2017,08,15,05,58,0.00
2017,08,15,05,59,0.00
2017,08,15,06,00,0.00
2017,08,15,06,01,0.00
2017,08,15,06,02,0.00
2017,08,15,06,03,0.00
2017,08,15,06,04,0.00
2017,08,15,06,05,0.00
2017,08,15,06,06,0.00
2017,08,15,06,07,0.00
2017,08,15,06,08,0.00
2017,08,15,06,09,0.00
2017,08,15,06,10,0.00
2017,08,15,06,11,0.00
2017,08,15,06,12,0.00
2017,08,15,06,13,0.00
2017,08,15,06,14,0.00
2017,08,15,06,15,0.00
2017,08,15,06,16,0.00
2017,08,15,06,17,3.00
2017,08,15,06,18,5.00
2017,08,15,06,19,5.00
2017,08,15,06,20,5.00
2017,08,15,06,21,5.50
2017,08,15,06,22,7.00
2017,08,15,06,23,7.00
2017,08,15,06,24,7.00
2017,08,15,06,25,7.00
2017,08,15,06,26,7.00
2017,08,15,06,27,7.00
2017,08,15,06,28,7.40
2017,08,15,06,29,9.00
2017,08,15,06,30,9.00
2017,08,15,06,31,10.20
2017,08,15,06,32,11.00
2017,08,15,06,33,11.00
2017,08,15,06,34,11.10
2017,08,15,06,35,12.00
2017,08,15,06,36,12.70
2017,08,15,06,37,14.00
2017,08,15,06,38,14.00
2017,08,15,06,39,15.50
2017,08,15,06,40,16.00
2017,08,15,06,41,18.00
2017,08,15,06,42,18.00
2017,08,15,06,43,18.30
2017,08,15,06,44,19.00
2017,08,15,06,45,19.00
2017,08,15,06,46,20.40
2017,08,15,06,47,22.70
2017,08,15,06,48,23.00
2017,08,15,06,49,23.40
2017,08,15,06,50,25.00
2017,08,15,06,51,25.50
2017,08,15,06,52,26.00
2017,08,15,06,53,26.00
2017,08,15,06,54,29.40
2017,08,15,06,55,32.00
2017,08,15,06,56,32.20
2017,08,15,06,57,33.70
2017,08,15,06,58,35.00
2017,08,15,06,59,36.20
2017,08,15,07,00,38.40
2017,08,15,07,01,39.80
2017,08,15,07,02,41.90
2017,08,15,07,03,42.50
2017,08,15,07,04,44.70
2017,08,15,07,05,46.50
2017,08,15,07,06,47.00
2017,08,15,07,07,47.00
2017,08,15,07,08,47.00
2017,08,15,07,09,48.90
2017,08,15,07,10,49.00
2017,08,15,07,11,49.80
2017,08,15,07,12,51.00
2017,08,15,07,13,52.20
2017,08,15,07,14,53.00
2017,08,15,07,15,53.90
2017,08,15,07,16,54.00
2017,08,15,07,17,54.40
2017,08,15,07,18,56.70
2017,08,15,07,19,59.00
2017,08,15,07,20,60.00
2017,08,15,07,21,60.00
2017,08,15,07,22,61.70
2017,08,15,07,23,62.00
2017,08,15,07,24,61.50
2017,08,15,07,25,60.00
2017,08,15,07,26,60.00
2017,08,15,07,27,61.20
2017,08,15,07,28,62.70
2017,08,15,07,29,66.40
2017,08,15,07,30,70.80
2017,08,15,07,31,79.30
2017,08,15,07,32,89.60
2017,08,15,07,33,88.50
2017,08,15,07,34,81.80
2017,08,15,07,35,81.00
2017,08,15,07,36,81.00
2017,08,15,07,37,81.70
2017,08,15,07,38,88.70
2017,08,15,07,39,93.10
2017,08,15,07,40,100.90
2017,08,15,07,41,159.00
2017,08,15,07,42,202.50
2017,08,15,07,43,208.60
2017,08,15,07,44,177.60
2017,08,15,07,45,158.80
2017,08,15,07,46,178.60
2017,08,15,07,47,200.30
2017,08,15,07,48,210.20
2017,08,15,07,49,200.80
2017,08,15,07,50,192.40
2017,08,15,07,51,192.20
2017,08,15,07,52,185.80
2017,08,15,07,53,185.00
2017,08,15,07,54,185.50
2017,08,15,07,55,185.40
2017,08,15,07,56,176.70
2017,08,15,07,57,171.30
2017,08,15,07,58,179.60
2017,08,15,07,59,236.00
2017,08,15,08,00,161.70
2017,08,15,08,01,149.60
2017,08,15,08,02,146.80
2017,08,15,08,03,146.00
2017,08,15,08,04,147.70
2017,08,15,08,05,150.90
2017,08,15,08,06,151.00
2017,08,15,08,07,151.00
2017,08,15,08,08,151.00
2017,08,15,08,09,152.20
2017,08,15,08,10,154.40
2017,08,15,08,11,155.90
2017,08,15,08,12,160.50
2017,08,15,08,13,166.00
2017,08,15,08,14,168.20
2017,08,15,08,15,167.00
2017,08,15,08,16,164.60
2017,08,15,08,17,160.90
2017,08,15,08,18,156.70
2017,08,15,08,19,156.00
2017,08,15,08,20,156.00
2017,08,15,08,21,156.00
2017,08,15,08,22,152.10
2017,08,15,08,23,142.50
2017,08,15,08,24,133.90
2017,08,15,08,25,128.60
2017,08,15,08,26,125.00
2017,08,15,08,27,125.50
2017,08,15,08,28,127.00
2017,08,15,08,29,127.00
2017,08,15,08,30,125.80
2017,08,15,08,31,125.00
2017,08,15,08,32,125.00
2017,08,15,08,33,125.20
2017,08,15,08,34,127.20
2017,08,15,08,35,128.70
2017,08,15,08,36,131.00
2017,08,15,08,37,133.20
2017,08,15,08,38,134.00
2017,08,15,08,39,134.00
2017,08,15,08,40,135.40
2017,08,15,08,41,139.70
2017,08,15,08,42,143.40
2017,08,15,08,43,147.00
2017,08,15,08,44,146.80
2017,08,15,08,45,146.00
2017,08,15,08,46,144.20
2017,08,15,08,47,142.20
2017,08,15,08,48,144.40
2017,08,15,08,49,147.70
2017,08,15,08,50,156.30
2017,08,15,08,51,211.80
2017,08,15,08,52,223.70
2017,08,15,08,53,236.70
2017,08,15,08,54,211.20
2017,08,15,08,55,275.90
2017,08,15,08,56,216.00
2017,08,15,08,57,216.00
2017,08,15,08,58,265.80
2017,08,15,08,59,343.00
2017,08,15,09,00,309.00
2017,08,15,09,01,246.80
2017,08,15,09,02,244.20
2017,08,15,09,03,246.50
2017,08,15,09,04,228.30
2017,08,15,09,05,255.10
2017,08,15,09,06,265.00
2017,08,15,09,07,248.70
2017,08,15,09,08,292.10
2017,08,15,09,09,252.90
2017,08,15,09,10,266.60
2017,08,15,09,11,269.70
2017,08,15,09,12,283.20
2017,08,15,09,13,258.10
2017,08,15,09,14,263.80
2017,08,15,09,15,267.00
2017,08,15,09,16,263.60
2017,08,15,09,17,253.00
2017,08,15,09,18,306.80
2017,08,15,09,19,361.30
2017,08,15,09,20,389.90
2017,08,15,09,21,360.30
2017,08,15,09,22,358.20
2017,08,15,09,23,406.60
2017,08,15,09,24,437.00
2017,08,15,09,25,432.70
2017,08,15,09,26,407.20
2017,08,15,09,27,444.10
2017,08,15,09,28,454.00
2017,08,15,09,29,310.20
2017,08,15,09,30,281.00
2017,08,15,09,31,281.00
2017,08,15,09,32,404.60
2017,08,15,09,33,505.40
2017,08,15,09,34,471.00
2017,08,15,09,35,389.00
2017,08,15,09,36,343.00
2017,08,15,09,37,424.90
2017,08,15,09,38,509.40
2017,08,15,09,39,584.30
2017,08,15,09,40,633.60
2017,08,15,09,41,602.40
2017,08,15,09,42,593.00
2017,08,15,09,43,689.00
2017,08,15,09,44,689.00
2017,08,15,09,45,689.00
2017,08,15,09,46,545.60
2017,08,15,09,47,425.50
2017,08,15,09,48,371.00
2017,08,15,09,49,304.00
2017,08,15,09,50,292.20
2017,08,15,09,51,288.90
2017,08,15,09,52,281.10
2017,08,15,09,53,292.70
2017,08,15,09,54,301.00
2017,08,15,09,55,309.70
2017,08,15,09,56,281.10
2017,08,15,09,57,276.00
2017,08,15,09,58,298.60
2017,08,15,09,59,367.40
2017,08,15,10,00,337.40
2017,08,15,10,01,341.00
2017,08,15,10,02,640.20
2017,08,15,10,03,740.00
2017,08,15,10,04,407.90
2017,08,15,10,05,367.00
2017,08,15,10,06,367.00
2017,08,15,10,07,367.00
2017,08,15,10,08,367.00
2017,08,15,10,09,371.30
2017,08,15,10,10,373.00
2017,08,15,10,11,538.00
2017,08,15,10,12,495.50
2017,08,15,10,13,360.10
2017,08,15,10,14,397.90
2017,08,15,10,15,422.10
2017,08,15,10,16,440.90
2017,08,15,10,17,415.40
2017,08,15,10,18,369.60
2017,08,15,10,19,377.80
2017,08,15,10,20,386.30
2017,08,15,10,21,376.00
2017,08,15,10,22,426.40
2017,08,15,10,23,422.00
2017,08,15,10,24,445.70
2017,08,15,10,25,454.00
2017,08,15,10,26,446.10
2017,08,15,10,27,413.20
2017,08,15,10,28,424.80
2017,08,15,10,29,406.10
2017,08,15,10,30,365.10
2017,08,15,10,31,341.80
2017,08,15,10,32,340.00
2017,08,15,10,33,346.80
2017,08,15,10,34,366.40
2017,08,15,10,35,336.00
2017,08,15,10,36,368.80
2017,08,15,10,37,361.00
2017,08,15,10,38,351.70
2017,08,15,10,39,368.70
2017,08,15,10,40,528.30
2017,08,15,10,41,592.00
2017,08,15,10,42,592.00
2017,08,15,10,43,592.00
2017,08,15,10,44,616.60
2017,08,15,10,45,626.00
2017,08,15,10,46,617.40
2017,08,15,10,47,545.40
2017,08,15,10,48,523.50
2017,08,15,10,49,545.00
2017,08,15,10,50,519.70
2017,08,15,10,51,561.50
2017,08,15,10,52,647.40
2017,08,15,10,53,601.00
2017,08,15,10,54,601.00
2017,08,15,10,55,601.00
2017,08,15,10,56,700.40
2017,08,15,10,57,807.00
2017,08,15,10,58,693.30
2017,08,15,10,59,621.60
2017,08,15,11,00,601.00
2017,08,15,11,01,684.00
2017,08,15,11,02,643.80
2017,08,15,11,03,603.50
2017,08,15,11,04,632.70
2017,08,15,11,05,635.00
2017,08,15,11,06,545.90
2017,08,15,11,07,567.20
2017,08,15,11,08,563.70
2017,08,15,11,09,613.00
2017,08,15,11,10,613.00
2017,08,15,11,11,548.50
2017,08,15,11,12,560.90
2017,08,15,11,13,525.20
2017,08,15,11,14,542.10
2017,08,15,11,15,503.70
2017,08,15,11,16,508.50
2017,08,15,11,17,552.10
2017,08,15,11,18,550.60
2017,08,15,11,19,524.00
2017,08,15,11,20,524.00
2017,08,15,11,21,520.40
2017,08,15,11,22,482.50
2017,08,15,11,23,532.10
2017,08,15,11,24,556.10
2017,08,15,11,25,563.80
2017,08,15,11,26,543.90
2017,08,15,11,27,515.10
2017,08,15,11,28,470.30
2017,08,15,11,29,474.10
2017,08,15,11,30,476.30
2017,08,15,11,31,490.00
2017,08,15,11,32,536.90
2017,08,15,11,33,503.40
2017,08,15,11,34,490.10
2017,08,15,11,35,489.70
2017,08,15,11,36,486.50
2017,08,15,11,37,492.50
2017,08,15,11,38,511.30
2017,08,15,11,39,493.30
2017,08,15,11,40,493.20
2017,08,15,11,41,558.50
2017,08,15,11,42,535.40
2017,08,15,11,43,571.10
2017,08,15,11,44,508.80
2017,08,15,11,45,508.10
2017,08,15,11,46,495.70
2017,08,15,11,47,533.60
2017,08,15,11,48,499.10
2017,08,15,11,49,492.10
2017,08,15,11,50,501.60
2017,08,15,11,51,476.10
2017,08,15,11,52,472.20
2017,08,15,11,53,482.40
2017,08,15,11,54,480.20
2017,08,15,11,55,475.00
2017,08,15,11,56,489.70
2017,08,15,11,57,514.20
2017,08,15,11,58,452.00
2017,08,15,11,59,486.80
2017,08,15,12,00,493.00
2017,08,15,12,01,489.30
2017,08,15,12,02,508.10
2017,08,15,12,03,510.00
2017,08,15,12,04,510.00
2017,08,15,12,05,510.00
2017,08,15,12,06,510.00
2017,08,15,12,07,499.10
2017,08,15,12,08,492.00
2017,08,15,12,09,492.00
2017,08,15,12,10,450.60
2017,08,15,12,11,462.70
2017,08,15,12,12,439.70
2017,08,15,12,13,439.00
2017,08,15,12,14,408.00
2017,08,15,12,15,408.00
2017,08,15,12,16,408.00
2017,08,15,12,17,408.00
2017,08,15,12,18,452.40
2017,08,15,12,19,615.00
2017,08,15,12,20,531.00
2017,08,15,12,21,441.00
2017,08,15,12,22,441.00
2017,08,15,12,23,441.00
2017,08,15,12,24,483.00
2017,08,15,12,25,550.00
2017,08,15,12,26,550.00
2017,08,15,12,27,550.00
2017,08,15,12,28,458.60
2017,08,15,12,29,394.00
2017,08,15,12,30,583.40
2017,08,15,12,31,554.20
2017,08,15,12,32,552.00
2017,08,15,12,33,552.00
2017,08,15,12,34,544.00
2017,08,15,12,35,536.00
2017,08,15,12,36,536.00
2017,08,15,12,37,915.30
2017,08,15,12,38,976.00
2017,08,15,12,39,976.00
2017,08,15,12,40,976.00
2017,08,15,12,41,976.00
2017,08,15,12,42,976.00
2017,08,15,12,43,976.00
2017,08,15,12,44,976.00
2017,08,15,12,45,957.10
2017,08,15,12,46,793.00
2017,08,15,12,47,793.00
2017,08,15,12,48,828.70
2017,08,15,12,49,867.00
2017,08,15,12,50,867.00
2017,08,15,12,51,813.40
2017,08,15,12,52,798.00
2017,08,15,12,53,714.50
2017,08,15,12,54,452.00
2017,08,15,12,55,530.00
2017,08,15,12,56,626.00
2017,08,15,12,57,626.00
2017,08,15,12,58,626.00
2017,08,15,12,59,919.50
2017,08,15,13,00,930.00
2017,08,15,13,01,790.00
2017,08,15,13,02,538.00
2017,08,15,13,03,613.10
2017,08,15,13,04,608.80
2017,08,15,13,05,592.00
2017,08,15,13,06,592.00
2017,08,15,13,07,666.20
2017,08,15,13,08,889.00
2017,08,15,13,09,889.00
2017,08,15,13,10,904.20
2017,08,15,13,11,892.60
2017,08,15,13,12,913.00
2017,08,15,13,13,919.00
2017,08,15,13,14,830.50
2017,08,15,13,15,492.90
2017,08,15,13,16,468.00
2017,08,15,13,17,468.00
2017,08,15,13,18,468.00
2017,08,15,13,19,786.90
2017,08,15,13,20,825.60
2017,08,15,13,21,816.40
2017,08,15,13,22,806.80
2017,08,15,13,23,793.00
2017,08,15,13,24,793.00
2017,08,15,13,25,658.00
2017,08,15,13,26,655.90
2017,08,15,13,27,663.00
2017,08,15,13,28,663.00
2017,08,15,13,29,663.00
2017,08,15,13,30,762.00
2017,08,15,13,31,857.90
2017,08,15,13,32,850.80
2017,08,15,13,33,829.20
2017,08,15,13,34,832.00
2017,08,15,13,35,884.00
2017,08,15,13,36,749.50
2017,08,15,13,37,494.00
2017,08,15,13,38,494.00
2017,08,15,13,39,683.70
2017,08,15,13,40,734.20
2017,08,15,13,41,748.10
2017,08,15,13,42,812.10
2017,08,15,13,43,794.30
2017,08,15,13,44,790.80
2017,08,15,13,45,798.00
2017,08,15,13,46,768.00
2017,08,15,13,47,758.00
2017,08,15,13,48,770.20
2017,08,15,13,49,789.00
2017,08,15,13,50,789.00
2017,08,15,13,51,790.00
2017,08,15,13,52,791.00
2017,08,15,13,53,760.70
2017,08,15,13,54,761.70
2017,08,15,13,55,763.00
2017,08,15,13,56,737.30
2017,08,15,13,57,643.00
2017,08,15,13,58,643.00
2017,08,15,13,59,643.00
2017,08,15,14,00,643.00
2017,08,15,14,01,774.10
2017,08,15,14,02,777.70
2017,08,15,14,03,619.00
2017,08,15,14,04,668.00
2017,08,15,14,05,745.10
2017,08,15,14,06,707.40
2017,08,15,14,07,695.40
2017,08,15,14,08,733.90
2017,08,15,14,09,728.90
2017,08,15,14,10,636.00
2017,08,15,14,11,611.70
2017,08,15,14,12,568.00
2017,08,15,14,13,570.90
2017,08,15,14,14,537.50
2017,08,15,14,15,578.00
2017,08,15,14,16,571.20
2017,08,15,14,17,438.90
2017,08,15,14,18,457.00
2017,08,15,14,19,472.90
2017,08,15,14,20,495.60
2017,08,15,14,21,502.80
2017,08,15,14,22,507.40
2017,08,15,14,23,557.80
2017,08,15,14,24,579.60
2017,08,15,14,25,562.90
2017,08,15,14,26,584.00
2017,08,15,14,27,585.80
2017,08,15,14,28,584.80
2017,08,15,14,29,639.70
2017,08,15,14,30,616.20
2017,08,15,14,31,615.00
2017,08,15,14,32,602.50
2017,08,15,14,33,626.80
2017,08,15,14,34,708.70
2017,08,15,14,35,728.00
2017,08,15,14,36,728.00
2017,08,15,14,37,720.10
2017,08,15,14,38,678.10
2017,08,15,14,39,754.00
2017,08,15,14,40,754.00
2017,08,15,14,41,754.00
2017,08,15,14,42,754.00
2017,08,15,14,43,725.40
2017,08,15,14,44,680.70
2017,08,15,14,45,688.40
2017,08,15,14,46,759.00
2017,08,15,14,47,759.00
2017,08,15,14,48,759.00
2017,08,15,14,49,646.10
2017,08,15,14,50,573.70
2017,08,15,14,51,633.70
2017,08,15,14,52,655.30
2017,08,15,14,53,750.80
2017,08,15,14,54,798.00
2017,08,15,14,55,714.80
2017,08,15,14,56,657.40
2017,08,15,14,57,656.00
2017,08,15,14,58,602.60
2017,08,15,14,59,589.20
2017,08,15,15,00,550.40
2017,08,15,15,01,517.50
2017,08,15,15,02,461.00
2017,08,15,15,03,439.00
2017,08,15,15,04,478.70
2017,08,15,15,05,500.00
2017,08,15,15,06,447.10
2017,08,15,15,07,409.70
2017,08,15,15,08,411.90
2017,08,15,15,09,437.10
2017,08,15,15,10,497.50
2017,08,15,15,11,515.60
2017,08,15,15,12,530.20
2017,08,15,15,13,455.10
2017,08,15,15,14,483.80
2017,08,15,15,15,471.50
2017,08,15,15,16,478.70
2017,08,15,15,17,554.90
2017,08,15,15,18,496.00
2017,08,15,15,19,400.70
2017,08,15,15,20,329.00
2017,08,15,15,21,329.00
2017,08,15,15,22,424.10
2017,08,15,15,23,506.10
2017,08,15,15,24,518.00
2017,08,15,15,25,526.00
2017,08,15,15,26,681.70
2017,08,15,15,27,687.00
2017,08,15,15,28,731.00
2017,08,15,15,29,731.00
2017,08,15,15,30,580.90
2017,08,15,15,31,443.90
2017,08,15,15,32,437.10
2017,08,15,15,33,516.20
2017,08,15,15,34,552.80
2017,08,15,15,35,659.00
2017,08,15,15,36,551.30
2017,08,15,15,37,408.70
2017,08,15,15,38,392.00
2017,08,15,15,39,558.40
2017,08,15,15,40,599.10
2017,08,15,15,41,717.00
2017,08,15,15,42,725.00
2017,08,15,15,43,734.50
2017,08,15,15,44,718.00
2017,08,15,15,45,716.80
2017,08,15,15,46,706.90
2017,08,15,15,47,660.60
2017,08,15,15,48,662.70
2017,08,15,15,49,682.90
2017,08,15,15,50,690.60
2017,08,15,15,51,689.40
2017,08,15,15,52,701.10
2017,08,15,15,53,653.30
2017,08,15,15,54,703.20
2017,08,15,15,55,661.00
2017,08,15,15,56,670.90
2017,08,15,15,57,695.30
2017,08,15,15,58,662.50
2017,08,15,15,59,617.20
2017,08,15,16,00,587.70
2017,08,15,16,01,649.40
2017,08,15,16,02,571.90
2017,08,15,16,03,589.10
2017,08,15,16,04,517.40
2017,08,15,16,05,470.80
2017,08,15,16,06,478.10
2017,08,15,16,07,488.90
2017,08,15,16,08,513.60
2017,08,15,16,09,526.30
2017,08,15,16,10,517.60
2017,08,15,16,11,489.10
2017,08,15,16,12,497.10
2017,08,15,16,13,556.50
2017,08,15,16,14,498.60
2017,08,15,16,15,549.00
2017,08,15,16,16,596.80
2017,08,15,16,17,568.00
2017,08,15,16,18,545.80
2017,08,15,16,19,540.20
2017,08,15,16,20,545.50
2017,08,15,16,21,461.10
2017,08,15,16,22,548.50
2017,08,15,16,23,584.20
2017,08,15,16,24,608.00
2017,08,15,16,25,606.60
2017,08,15,16,26,601.30
2017,08,15,16,27,598.20
2017,08,15,16,28,592.60
2017,08,15,16,29,590.40
2017,08,15,16,30,586.00
2017,08,15,16,31,590.10
2017,08,15,16,32,592.00
2017,08,15,16,33,590.20
2017,08,15,16,34,585.40
2017,08,15,16,35,578.00
2017,08,15,16,36,570.90
2017,08,15,16,37,567.50
2017,08,15,16,38,564.10
2017,08,15,16,39,559.00
2017,08,15,16,40,550.80
2017,08,15,16,41,541.90
2017,08,15,16,42,536.60
2017,08,15,16,43,531.70
2017,08,15,16,44,515.90
2017,08,15,16,45,513.50
2017,08,15,16,46,526.50
2017,08,15,16,47,523.60
2017,08,15,16,48,520.60
2017,08,15,16,49,517.40
2017,08,15,16,50,513.10
2017,08,15,16,51,512.80
2017,08,15,16,52,511.20
2017,08,15,16,53,511.50
2017,08,15,16,54,508.70
2017,08,15,16,55,503.70
2017,08,15,16,56,501.30
2017,08,15,16,57,497.00
2017,08,15,16,58,494.30
2017,08,15,16,59,489.00
2017,08,15,17,00,487.00
2017,08,15,17,01,483.80
2017,08,15,17,02,480.90
2017,08,15,17,03,478.30
2017,08,15,17,04,477.50
2017,08,15,17,05,473.50
2017,08,15,17,06,456.10
2017,08,15,17,07,443.10
2017,08,15,17,08,469.00
2017,08,15,17,09,468.30
2017,08,15,17,10,466.30
2017,08,15,17,11,462.00